Point Lay, AK

2:29 PM AKST on February 24, 2017 (GMT -0900)
Point Lay

Weather History for PPIZ - September, 2013

Change the Weather History Date:

Sunday, September 29, 2013

  Actual Average Record
Temperature  
Mean Temperature 26 °F -  
Max Temperature 30 °F 33 °F 62 °F (2004)
Min Temperature 21 °F 27 °F 15 °F (2004)
Degree Days  
Heating Degree Days 40    
Moisture  
Dew Point 21 °F    
Average Humidity 80    
Maximum Humidity 92    
Minimum Humidity 72    
Precipitation  
Precipitation 0.00 in - - ()
Sea Level Pressure  
Sea Level Pressure 30.02 in    
Wind  
Wind Speed 3 mph (SSE)    
Max Wind Speed 8 mph    
Max Gust Speed -    
Visibility 10 miles    
Events      
Averages and records for this station are not official NWS values.
T = Trace of Precipitation, MM = Missing Value Source: NWS Daily Summary

Daily Weather History Graph

Daily Weather History Graph

Search for Another Location

Airport or City:

Trip Planner

Search our weather history database for the weather conditions in past years. The results will help you decide how hot, cold, wet, or windy it might be!

Date:

Astronomy

Sep. 29, 2013 Rise Set
Actual Time 9:01 AM AKDT 8:20 PM AKDT
Civil Twilight 8:01 AM AKDT 9:20 PM AKDT
Nautical Twilight 6:48 AM AKDT 10:32 PM AKDT
Astronomical Twilight 5:21 AM AKDT 11:58 PM AKDT
Moon 1:21 AM AKDT (9/29) 7:30 PM AKDT (9/29)
Length of Visible Light 13h 18m
Length of Day
11h 19m
Waning Crescent, 26% of the Moon is Illuminated
Sep 29
Waning Crescent
Oct 4
New
Oct 11
First Quarter
Oct 18
Full
Oct 26
Last Quarter

Hourly Weather History & Observations

Time (AKDT) Temp. Windchill Dew Point Humidity Pressure Visibility Wind Dir Wind Speed Gust Speed Precip Events Conditions
12:56 AM 26.1 °F - 23.0 °F 88% 29.93 in 10.0 mi Calm Calm - N/A   Overcast
1:56 AM 28.0 °F 22.8 °F 22.1 °F 78% 29.94 in 10.0 mi South 4.6 mph - N/A   Overcast
2:56 AM 28.0 °F 21.7 °F 22.1 °F 78% 29.95 in 10.0 mi SSW 5.8 mph - N/A   Overcast
3:56 AM 29.1 °F - 22.1 °F 75% 29.96 in 10.0 mi Calm Calm - N/A   Mostly Cloudy
4:56 AM 28.0 °F 22.8 °F 23.0 °F 81% 29.96 in 10.0 mi SSE 4.6 mph - N/A   Partly Cloudy
5:56 AM 27.1 °F 21.8 °F 23.0 °F 84% 29.97 in 10.0 mi SE 4.6 mph - N/A   Scattered Clouds
6:56 AM 22.1 °F 12.8 °F 18.1 °F 85% 29.98 in 10.0 mi ESE 8.1 mph - N/A   Partly Cloudy
7:56 AM 21.0 °F - 18.1 °F 89% 29.99 in 10.0 mi Calm Calm - N/A   Mostly Cloudy
8:56 AM 24.1 °F - 22.1 °F 92% 29.99 in 10.0 mi Calm Calm - N/A   Scattered Clouds
9:56 AM 21.2 °F 14.9 °F 17.6 °F 86% 29.99 in 10.0 mi ESE 4.6 mph - N/A   Mostly Cloudy
10:56 AM 25.2 °F - 21.0 °F 84% 30.01 in 10.0 mi Calm Calm - N/A   Overcast
11:56 AM 25.2 °F - 20.1 °F 81% 30.02 in 10.0 mi Calm Calm - N/A   Overcast
12:56 PM 28.0 °F 21.7 °F 23.0 °F 81% 30.03 in 10.0 mi SSE 5.8 mph - N/A   Overcast
1:56 PM 29.1 °F 23.0 °F 22.1 °F 75% 30.03 in 10.0 mi SSE 5.8 mph - N/A   Mostly Cloudy
2:56 PM 29.1 °F 25.4 °F 21.0 °F 72% 30.04 in 10.0 mi SSE 3.5 mph - N/A   Overcast
3:56 PM 29.1 °F 25.4 °F 22.1 °F 75% 30.05 in 10.0 mi SW 3.5 mph - N/A   Mostly Cloudy
4:56 PM 30.0 °F - 22.1 °F 72% 30.05 in 10.0 mi Calm Calm - N/A   Overcast
5:56 PM 30.0 °F - 22.1 °F 72% 30.05 in 10.0 mi Calm Calm - N/A   Mostly Cloudy
6:56 PM 29.1 °F 23.0 °F 21.0 °F 72% 30.06 in 10.0 mi SSE 5.8 mph - N/A   Mostly Cloudy
7:56 PM 28.0 °F 22.8 °F 21.0 °F 75% 30.06 in 10.0 mi South 4.6 mph - N/A   Overcast
8:56 PM 27.1 °F - 22.1 °F 81% 30.07 in 10.0 mi Calm Calm - N/A   Overcast
9:56 PM 26.1 °F 18.4 °F 20.1 °F 78% 30.07 in 10.0 mi SSE 6.9 mph - N/A   Overcast
10:56 PM 27.1 °F - 22.1 °F 81% 30.08 in 10.0 mi Calm Calm - N/A   Overcast
11:56 PM 25.2 °F - 21.0 °F 84% 30.09 in 10.0 mi Calm Calm - N/A   Overcast